Regional Weather Roundup
Issued by NWS

Home | Current Version | Previous Version | Graphics & Text | Print | Product List | Glossary Off
Versions: 1 2 3 4 5 6 7 8 9 10 11 12 13 14 15 16 17 18 19 20 21 22 23 24 25 26 27 28 29 30 31 32 33 34 35 36 37 38 39 40 41 42 43 44 45 46 47 48 49 50

000
ASUS43 KDTX 161801
RWRMI
MICHIGAN HOURLY REGIONAL WEATHER ROUNDUP
NATIONAL WEATHER SERVICE DETROIT/PONTIAC MI
200 PM EDT MON OCT 16 2017

NOTE: "FAIR" INDICATES FEW OR NO CLOUDS BELOW 12,000 FEET WITH NO
SIGNIFICANT WEATHER AND/OR OBSTRUCTION TO VISIBILITY.

MIZ047>049-052>055-059>063-066>070-074>076-081>083-161900-
SOUTHEAST LOWER MICHIGAN

CITY           SKY/WX    TMP DP  RH WIND       PRES   REMARKS
ADRIAN         PTSUNNY   54  38  54 W7        30.29F
6HR MIN TEMP:  44; 6HR MAX TEMP:  55;

ALMA           CLOUDY    55  35  46 SW9G20    30.27F
ANN ARBOR      MOSUNNY   56  35  45 NW10      30.27F
BAD AXE        SUNNY     52  31  44 CALM      30.27F
CARO           SUNNY     54  33  44 SW6       30.26F
DETROIT CITY   SUNNY     53  31  42 CALM      30.29F
6HR MIN TEMP:  44; 6HR MAX TEMP:  55;

DETROIT        MOSUNNY   57  35  43 NW10      30.29F
6HR MIN TEMP:  44; 6HR MAX TEMP:  57;

FLINT          SUNNY     54  31  41 MISG      30.28F
6HR MIN TEMP:  41; 6HR MAX TEMP:  54;

GROSSE ILE     SUNNY     55  35  46 CALM      30.27F
6HR MIN TEMP:  44; 6HR MAX TEMP:  56;

HILLSDALE      CLOUDY    54  37  54 W7        30.28F
HOWELL         SUNNY     53  33  46 CALM      30.27F
6HR MIN TEMP:  41; 6HR MAX TEMP:  55;


CITY           SKY/WX    TMP DP  RH WIND       PRES   REMARKS
JACKSON        CLOUDY    54  39  57 W8        30.28F
6HR MIN TEMP:  44; 6HR MAX TEMP:  54;

LAMBERTVILLE   MOSUNNY   59  37  43 W6        30.28F
6HR MIN TEMP:  45; 6HR MAX TEMP:  59;

LANSING        CLOUDY    53  36  52 SW7       30.28F
6HR MIN TEMP:  40; 6HR MAX TEMP:  54;

LAPEER         FAIR      53  31  44 NW6       30.28F
6HR MIN TEMP:  39; 6HR MAX TEMP:  53;

MASON          CLOUDY    56  38  50 W3        30.28F
MONROE         MOSUNNY   58  33  38 CALM      30.28F
6HR MIN TEMP:  43; 6HR MAX TEMP:  58;

MT. CLEMENS    MOSUNNY   55  32  42 NW7       30.26F
6HR MIN TEMP:  42; 6HR MAX TEMP:  55;

PONTIAC        MOSUNNY   53  33  46 W7        30.27F
6HR MIN TEMP:  41; 6HR MAX TEMP:  53;

PORT HOPE        N/A     51  35  54 NW7       30.25F
6HR MIN TEMP:  46; 6HR MAX TEMP:  52;

PORT HURON     MOSUNNY   54  30  40 W3        30.27F
TRI CITIES     MOSUNNY   54  37  52 SW10      30.28F
6HR MIN TEMP:  41; 6HR MAX TEMP:  54;

MIDLAND        CLOUDY    54  37  52 S8        30.26F
6HR MIN TEMP:  38; 6HR MAX TEMP:  55; 6HR PCP:  0.75;

TROY           SUNNY     54  30  40 NW6       30.29F
SAGINAW HB     SUNNY     52  34  50 S3        30.27F
$$
MIZ043>046-050>051-056>058-064>065-071>073-077>080-161900-
SOUTHWEST LOWER MICHIGAN

CITY           SKY/WX    TMP DP  RH WIND       PRES   REMARKS
BATTLE CREEK   PTSUNNY   56  44  64 W13G21    30.29F
6HR MIN TEMP:  44; 6HR MAX TEMP:  56;

BENTON HARBOR  SUNNY     57  40  52 W12       30.30F
6HR MIN TEMP:  52; 6HR MAX TEMP:  57;

BIG RAPIDS     MOSUNNY   51  38  61 W7        30.24F
6HR MIN TEMP:  39; 6HR MAX TEMP:  54;

COLDWATER      CLOUDY    53  41  63 NW5       30.29F
6HR MIN TEMP:  41; 6HR MAX TEMP:  55;

FREMONT        FAIR      55  42  61 W8        30.25F
HOLLAND        PTSUNNY   56  40  55 W8        30.28F
6HR MIN TEMP:  46; 6HR MAX TEMP:  58;

GRAND RAPIDS   PTSUNNY   55  41  59 W9        30.27F
6HR MIN TEMP:  45; 6HR MAX TEMP:  57;

IONIA          FAIR      54  40  58 W5        30.27F
6HR MIN TEMP:  42; 6HR MAX TEMP:  55;

LUDINGTON      MOSUNNY   54  38  55 W9        30.24F
6HR MIN TEMP:  38; 6HR MAX TEMP:  55; 6HR PCP:  0.01;

MARSHALL       MOSUNNY   54  39  57 W9G16     30.28F
6HR MIN TEMP:  41; 6HR MAX TEMP:  55;

MOUNT PLEASANT PTSUNNY   55  37  49 W7        30.25F
6HR MIN TEMP:  42; 6HR MAX TEMP:  57;

MUSKEGON       PTSUNNY   59  41  51 W12       30.27F
6HR MIN TEMP:  45; 6HR MAX TEMP:  59;

SOUTH HAVEN    SUNNY     58  41  52 W9        30.29F
$$
MIZ016>042-161900-
NORTHERN LOWER MICHIGAN

CITY           SKY/WX    TMP DP  RH WIND       PRES   REMARKS
ALPENA         SUNNY     53  34  48 SW8G17    30.22F HAZE
6HR MIN TEMP:  34; 6HR MAX TEMP:  53;

BEAVER ISLAND  MOSUNNY   55  36  49 W17G24    30.18S
6HR MIN TEMP:  32; 6HR MAX TEMP:  55;

BELLAIRE       PTSUNNY   53  39  58 SW6       30.20F
6HR MIN TEMP:  29; 6HR MAX TEMP:  54;

CADILLAC       PTSUNNY   56  36  48 SW12G21   30.21F
CHARLEVOIX     PTSUNNY   53  42  64 SW13      30.21F
6HR MIN TEMP:  37; 6HR MAX TEMP:  55;

FRANKFORT      PTSUNNY   56  39  53 SW8       30.22F
GAYLORD        PTSUNNY   50  35  56 SW14      30.19F
6HR MIN TEMP:  29; 6HR MAX TEMP:  51;

GRAYLING       PTSUNNY   51  36  56 W9        30.21F
6HR MIN TEMP:  27; 6HR MAX TEMP:  51;

HARBOR SPRINGS CLOUDY    52  37  57 SW13G21   30.17F
HOUGHTON LAKE  CLOUDY    50  37  61 SW8       30.23F
6HR MIN TEMP:  34; 6HR MAX TEMP:  51;

MANISTEE       MOSUNNY   54  39  57 SW16      30.23F
OSCODA         SUNNY     54  30  40 SW9G17    30.23F
6HR MIN TEMP:  35; 6HR MAX TEMP:  54;

PELLSTON       CLOUDY    51  40  65 SW9       30.17F
6HR MIN TEMP:  26; 6HR MAX TEMP:  52; 6HR PCP: TRACE;

ROGERS CITY    MOSUNNY   52  35  52 SW13G18   30.20F
TRAVERSE CITY  PTSUNNY   56  40  55 SW10G20   30.19F
6HR MIN TEMP:  39; 6HR MAX TEMP:  56;

$$
MIZ007>008-015-161900-
EASTERN UPPER MICHIGAN

CITY           SKY/WX    TMP DP  RH WIND       PRES   REMARKS
KINROSS        PTSUNNY   50  42  74 S13       30.16F
6HR MIN TEMP:  29; 6HR MAX TEMP:  50;

MACKINAC ISLAN LGT RAIN  47  41  82 SW8       30.18F
6HR MIN TEMP:  41; 6HR MAX TEMP:  50; 6HR PCP:  0.04;

NEWBERRY       SUNNY     52  32  46 W16       30.14S
6HR MIN TEMP:  30; 6HR MAX TEMP:  53;

S. S. MARIE    CLOUDY    51  39  63 SW14      30.15S
6HR MIN TEMP:  32; 6HR MAX TEMP:  54;

MUNISING         N/A     55  36  48 MISG      30.13F
6HR MIN TEMP:  37; 6HR MAX TEMP:  56;

$$
MIZ004>006-011>014-085-161900-
CENTRAL UPPER MICHIGAN

CITY           SKY/WX    TMP DP  RH WIND       PRES   REMARKS
MANISTIQUE     SUNNY     54  27  36 SW10G16   30.15F
6HR MIN TEMP:  27; 6HR MAX TEMP:  54;

ESCANABA       SUNNY     55  37  50 SW10G21   30.16
6HR MIN TEMP:  32; 6HR MAX TEMP:  55;

MENOMINEE      SUNNY     55  37  50 SW14G20   30.19
6HR MIN TEMP:  35; 6HR MAX TEMP:  55;

SAWYER-GWINN   SUNNY     52  36  54 SW14G21   30.13F
$$
MIZ001>003-009>011-084-161900-
WESTERN UPPER MICHIGAN

CITY           SKY/WX    TMP DP  RH WIND       PRES   REMARKS
IRON MOUNTAIN  SUNNY     56  33  42 W10       30.14F
6HR MIN TEMP:  28; 6HR MAX TEMP:  56;

HOUGHTON       CLOUDY    53  35  50 W23G29    30.09S
6HR MIN TEMP:  38; 6HR MAX TEMP:  53;

COPPER HARBOR    N/A     54  41  61 N16G22    30.08S
6HR MIN TEMP:  39; 6HR MAX TEMP:  56;

IRONWOOD       MOSUNNY   54  35  48 SW14G23   30.11F
6HR MIN TEMP:  35; 6HR MAX TEMP:  54;

$$

ABBREVIATIONS USED IN REMARKS
   TC - TEMPERATURE IN CELSIUS
  WCI - WIND CHILL INDEX
   HX - HEAT INDEX
  VSB - VISIBILITY





USA.gov is the U.S. government's official web portal to all federal, state and local government web resources and services.